Time,TemperatureF,DewpointF,PressureIn,WindDirection,WindDirectionDegrees,WindSpeedMPH,WindSpeedGustMPH,Humidity,HourlyPrecipIn,Conditions,Clouds,dailyrainin,SoftwareType,DateUTC
2013-07-30 00:02:00,55.0,48.0,-100.00,North,-999,0.0,-999.0,76,0.00,,,0.04,,2013-07-30 06:02:00,
2013-07-30 00:12:00,55.0,48.0,-100.00,North,-999,0.0,-999.0,76,0.00,,,0.04,,2013-07-30 06:12:00,
2013-07-30 00:53:00,55.0,46.0,-100.00,North,-999,0.0,-999.0,71,0.00,,,0.04,,2013-07-30 06:53:00,
2013-07-30 01:02:00,55.0,46.0,-100.00,North,-999,0.0,-999.0,71,0.00,,,0.04,,2013-07-30 07:02:00,
2013-07-30 01:13:00,55.0,46.0,-100.00,North,-999,0.0,-999.0,71,0.00,,,0.04,,2013-07-30 07:13:00,
2013-07-30 01:53:00,53.0,46.0,-100.00,North,-999,0.0,-999.0,77,0.00,,,0.03,,2013-07-30 07:53:00,
2013-07-30 02:02:00,53.0,46.0,-100.00,North,-999,0.0,-999.0,77,0.00,,,0.03,,2013-07-30 08:02:00,
2013-07-30 02:12:00,53.0,46.0,-100.00,North,-999,0.0,-999.0,77,0.00,,,0.03,,2013-07-30 08:12:00,
2013-07-30 02:53:00,54.0,47.0,-100.00,North,-999,0.0,-999.0,76,0.00,,,0.03,,2013-07-30 08:53:00,
2013-07-30 03:02:00,54.0,47.0,-100.00,North,-999,0.0,-999.0,76,0.00,,,0.03,,2013-07-30 09:02:00,
2013-07-30 03:12:00,54.0,47.0,-100.00,North,-999,0.0,-999.0,76,0.00,,,0.03,,2013-07-30 09:12:00,
2013-07-30 03:43:00,57.0,47.0,-100.00,North,-999,0.0,-999.0,68,0.00,,,0.03,,2013-07-30 09:43:00,
2013-07-30 03:53:00,57.0,47.0,-100.00,North,-999,0.0,-999.0,68,0.00,,,0.03,,2013-07-30 09:53:00,
2013-07-30 04:02:00,57.0,47.0,-100.00,North,-999,0.0,-999.0,68,0.00,,,0.03,,2013-07-30 10:02:00,
2013-07-30 04:12:00,57.0,47.0,-100.00,North,-999,0.0,-999.0,68,0.00,,,0.03,,2013-07-30 10:12:00,
2013-07-30 04:44:00,53.0,47.0,-100.00,North,-999,0.0,-999.0,79,0.00,,,0.03,,2013-07-30 10:44:00,
2013-07-30 04:52:00,53.0,47.0,-100.00,North,-999,0.0,-999.0,79,0.00,,,0.03,,2013-07-30 10:52:00,
2013-07-30 05:02:00,53.0,47.0,-100.00,North,-999,0.0,-999.0,79,0.00,,,0.03,,2013-07-30 11:02:00,
2013-07-30 05:11:00,53.0,47.0,-100.00,North,-999,0.0,-999.0,79,0.00,,,0.03,,2013-07-30 11:11:00,
2013-07-30 05:43:00,50.0,46.0,-100.00,North,-999,0.0,-999.0,86,0.00,,,0.03,,2013-07-30 11:43:00,
2013-07-30 05:53:00,50.0,46.0,-100.00,North,-999,0.0,-999.0,86,0.00,,,0.03,,2013-07-30 11:53:00,
2013-07-30 06:12:00,50.0,46.0,-100.00,North,-999,0.0,-999.0,86,0.00,,,0.03,,2013-07-30 12:12:00,
2013-07-30 06:42:00,50.0,46.0,-100.00,North,-999,0.0,-999.0,86,0.00,,,0.03,,2013-07-30 12:42:00,
2013-07-30 06:53:00,50.0,46.0,-100.00,North,-999,0.0,-999.0,86,0.00,,,0.03,,2013-07-30 12:53:00,
2013-07-30 07:01:00,50.0,46.0,-100.00,North,-999,0.0,-999.0,86,0.00,,,0.03,,2013-07-30 13:01:00,
2013-07-30 07:12:00,50.0,46.0,-100.00,North,-999,0.0,-999.0,86,0.00,,,0.03,,2013-07-30 13:12:00,
2013-07-30 07:52:00,51.0,44.0,-100.00,North,-999,0.0,-999.0,77,0.00,,,0.03,,2013-07-30 13:52:00,
2013-07-30 08:02:00,51.0,44.0,-100.00,North,-999,0.0,-999.0,77,0.00,,,0.03,,2013-07-30 14:02:00,
2013-07-30 08:12:00,51.0,44.0,-100.00,North,-999,0.0,-999.0,77,0.00,,,0.03,,2013-07-30 14:12:00,
2013-07-30 08:53:00,51.0,46.0,-100.00,North,-999,0.0,-999.0,83,0.00,,,0.03,,2013-07-30 14:53:00,
2013-07-30 09:02:00,51.0,46.0,-100.00,North,-999,0.0,-999.0,83,0.00,,,0.03,,2013-07-30 15:02:00,
2013-07-30 09:12:00,51.0,46.0,-100.00,North,-999,0.0,-999.0,83,0.00,,,0.03,,2013-07-30 15:12:00,
2013-07-30 09:43:00,59.0,49.0,-100.00,North,-999,0.0,-999.0,70,0.00,,,0.02,,2013-07-30 15:43:00,
2013-07-30 09:53:00,59.0,49.0,-100.00,North,-999,0.0,-999.0,70,0.00,,,0.02,,2013-07-30 15:53:00,
2013-07-30 10:02:00,59.0,49.0,-100.00,North,-999,0.0,-999.0,70,0.00,,,0.02,,2013-07-30 16:02:00,
2013-07-30 10:12:00,59.0,49.0,-100.00,North,-999,0.0,-999.0,70,0.00,,,0.02,,2013-07-30 16:12:00,
2013-07-30 10:43:00,71.0,49.0,-100.00,North,-999,0.0,-999.0,46,-99.99,,,0.01,,2013-07-30 16:43:00,
2013-07-30 10:52:00,71.0,49.0,-100.00,North,-999,0.0,-999.0,46,-99.99,,,0.01,,2013-07-30 16:52:00,
2013-07-30 11:02:00,71.0,49.0,-100.00,North,-999,0.0,-999.0,46,-99.99,,,0.01,,2013-07-30 17:02:00,
2013-07-30 11:12:00,71.0,49.0,-100.00,North,-999,0.0,-999.0,46,-99.99,,,0.01,,2013-07-30 17:12:00,
2013-07-30 11:43:00,72.0,54.0,-100.00,North,-999,0.0,-999.0,53,0.00,,,0.01,,2013-07-30 17:43:00,
2013-07-30 11:53:00,72.0,54.0,-100.00,North,-999,0.0,-999.0,53,0.00,,,0.01,,2013-07-30 17:53:00,
2013-07-30 12:52:00,76.0,48.0,-100.00,North,-999,0.0,-999.0,37,0.00,,,0.01,,2013-07-30 18:52:00,
2013-07-30 13:02:00,76.0,48.0,-100.00,North,-999,0.0,-999.0,37,0.00,,,0.01,,2013-07-30 19:02:00,
2013-07-30 13:12:00,76.0,48.0,-100.00,North,-999,0.0,-999.0,37,0.00,,,0.01,,2013-07-30 19:12:00,
2013-07-30 13:44:00,78.0,42.0,-100.00,North,-999,0.0,-999.0,28,0.00,,,0.01,,2013-07-30 19:44:00,
2013-07-30 13:52:00,78.0,42.0,-100.00,North,-999,0.0,-999.0,28,0.00,,,0.01,,2013-07-30 19:52:00,
2013-07-30 14:02:00,78.0,42.0,-100.00,North,-999,0.0,-999.0,28,0.00,,,0.01,,2013-07-30 20:02:00,
2013-07-30 14:12:00,78.0,42.0,-100.00,North,-999,0.0,-999.0,28,0.00,,,0.01,,2013-07-30 20:12:00,
2013-07-30 14:52:00,78.0,43.0,-100.00,North,-999,0.0,-999.0,29,0.00,,,0.01,,2013-07-30 20:52:00,
2013-07-30 15:02:00,78.0,43.0,-100.00,North,-999,0.0,-999.0,29,0.00,,,0.01,,2013-07-30 21:02:00,
2013-07-30 15:12:00,78.0,43.0,-100.00,North,-999,0.0,-999.0,29,0.00,,,0.01,,2013-07-30 21:12:00,
2013-07-30 16:52:00,82.0,37.0,-100.00,North,-999,0.0,-999.0,20,-99.99,,,0.02,,2013-07-30 22:52:00,
2013-07-30 17:02:00,82.0,37.0,-100.00,North,-999,0.0,-999.0,20,-99.99,,,0.02,,2013-07-30 23:02:00,
2013-07-30 17:12:00,82.0,37.0,-100.00,North,-999,0.0,-999.0,20,-99.99,,,0.02,,2013-07-30 23:12:00,
2013-07-30 18:53:00,80.0,44.0,-100.00,North,-999,0.0,-999.0,28,0.00,,,0.01,,2013-07-31 00:53:00,
2013-07-30 19:02:00,80.0,44.0,-100.00,North,-999,0.0,-999.0,28,0.00,,,0.01,,2013-07-31 01:02:00,
2013-07-30 19:12:00,80.0,44.0,-100.00,North,-999,0.0,-999.0,28,0.00,,,0.01,,2013-07-31 01:12:00,
2013-07-30 19:52:00,80.0,45.0,-100.00,North,-999,0.0,-999.0,29,0.00,,,0.01,,2013-07-31 01:52:00,
2013-07-30 20:02:00,80.0,45.0,-100.00,North,-999,0.0,-999.0,29,0.00,,,0.01,,2013-07-31 02:02:00,
2013-07-30 20:11:00,80.0,45.0,-100.00,North,-999,0.0,-999.0,29,0.00,,,0.01,,2013-07-31 02:11:00,
2013-07-30 20:42:00,73.0,52.0,-100.00,North,-999,0.0,-999.0,47,0.00,,,0.01,,2013-07-31 02:42:00,
2013-07-30 20:52:00,73.0,52.0,-100.00,North,-999,0.0,-999.0,47,0.00,,,0.01,,2013-07-31 02:52:00,
2013-07-30 21:42:00,67.0,39.0,-100.00,North,-999,0.0,-999.0,36,0.00,,,0.01,,2013-07-31 03:42:00,
2013-07-30 21:52:00,67.0,39.0,-100.00,North,-999,0.0,-999.0,36,0.00,,,0.01,,2013-07-31 03:52:00,
2013-07-30 22:02:00,67.0,39.0,-100.00,North,-999,0.0,-999.0,36,0.00,,,0.01,,2013-07-31 04:02:00,
2013-07-30 22:12:00,67.0,39.0,-100.00,North,-999,0.0,-999.0,36,0.00,,,0.01,,2013-07-31 04:12:00,
2013-07-30 22:42:00,67.0,36.0,-100.00,North,-999,0.0,-999.0,32,0.00,,,0.01,,2013-07-31 04:42:00,
2013-07-30 22:52:00,67.0,36.0,-100.00,North,-999,0.0,-999.0,32,0.00,,,0.01,,2013-07-31 04:52:00,
2013-07-30 23:02:00,67.0,36.0,-100.00,North,-999,0.0,-999.0,32,0.00,,,0.01,,2013-07-31 05:02:00,
2013-07-30 23:11:00,67.0,36.0,-100.00,North,-999,0.0,-999.0,32,0.00,,,0.01,,2013-07-31 05:11:00,
2013-07-30 23:42:00,61.0,40.0,-100.00,North,-999,0.0,-999.0,45,0.00,,,0.01,,2013-07-31 05:42:00,
2013-07-30 23:52:00,61.0,40.0,-100.00,North,-999,0.0,-999.0,45,0.00,,,0.01,,2013-07-31 05:52:00,